Regional Weather Roundup
Issued by NWS Newport/Morehead, NC

Current Version | Previous Version | Graphics & Text | Print | Product List | Glossary Off
Versions: 1 2 3 4 5 6 7 8 9 10 11 12 13 14 15 16 17 18 19 20 21 22 23 24 25 26 27 28 29 30 31 32 33 34 35 36 37 38 39 40 41 42 43 44 45 46 47 48 49 50

000
ASUS42 KMHX 261225
RWRMHX
WEATHER ROUNDUP FOR EASTERN NORTH CAROLINA
NATIONAL WEATHER SERVICE NEWPORT/MOREHEAD CITY NC
700 AM EST SUN FEB 26 2017

NOTE: "FAIR" INDICATES FEW OR NO CLOUDS BELOW 12,000 FEET
WITH NO SIGNIFICANT WEATHER AND/OR OBSTRUCTIONS TO VISIBILITY

NCZ015>017-031-032-045>047-102-103-261300-
NORTH COAST

CITY           SKY/WX    TMP DP  RH WIND       PRES   REMARKS
EDENTON        CLEAR     44  28  53 NW8       30.09R
ELIZABETH CITY CLEAR     42  25  50 NW9       30.05R
KITTY HAWK     NOT AVBL
MANTEO         CLEAR     46  35  65 N10       30.05R

$$

NCZ045>047-081-094-103-104-261300-
CENTRAL COAST

CITY           SKY/WX    TMP DP  RH WIND       PRES   REMARKS
FRISCO         CLEAR     50  32  50 NW10G18   30.03R

$$

NCZ095-097-098-100-101-261300-
SOUTHERN COAST

CITY           SKY/WX    TMP DP  RH WIND       PRES   REMARKS
BEAUFORT       CLEAR     47  26  44 N14       30.07R
CEDAR ISLAND   NOT AVBL
JACKSONVILLE   CLEAR     45  24  43 NW12      30.09R
PINEY ISLAND   SUNNY    N/A N/A N/A NW10G20   30.06R
WILMINGTON     CLEAR     41  23  48 N7        30.10R


$$

NCZ011>013-027>030-043-044-078>080-089-090>093-098-261300-
COASTAL PLAIN

CITY           SKY/WX    TMP DP  RH WIND       PRES   REMARKS
AHOSKIE          N/A     37  23  55 CALM      30.10R
CLINTON        CLEAR     40  26  56 CALM      30.13R
ELIZABETHTOWN  CLEAR     42  21  43 CALM      30.12R
GOLDSBORO      CLEAR     42  18  37 NW7       30.08R
GREENVILLE     CLEAR     41  21  45 NW6       30.12R
HAVELOCK       CLEAR     46  22  38 NW14      30.08R
KENANSVILLE    CLEAR     39  21  48 N3        30.12R
KINSTON        CLEAR     39  23  52 NW3       30.11R
NEW BERN       CLEAR     43  23  45 NW10      30.09R
RICHLANDS      CLEAR     42  22  44 N3        30.11R
ROCKY MOUNT    CLEAR     38  22  52 NW6       30.10R
WASHINGTON     CLEAR     41  23  48 NW6       30.11R
WHITEVILLE     CLEAR     42  23  46 CALM      30.12R

$$

AMZ130-135-150-152-154-156-158-170-250-252-270-ANZ085-086-088-633-658-670-261300-
MARINE OBSERVATIONS

STATION/POSITION TIME  TEMP    WIND        PRES    WAVE   SWELL
                       AIR SEA DIR/SP/G            HT/PER HT/PER
                 (UTC) (F)     (DEG/KT/KT) (MB)    (FT/S) (FT/S)
CHESAPEAKE LIGHT NOT AVBL
64 E VA BEACH    1150   47 51  340/ 16/ 19 1015.4    6/10   3/10
DUCK             1200   46 49  360/ 16/ 17 1016.7
2 E DUCK         1200      50                N/A     4/ 5   2/11
OREGON INLET     1200   46 60  350/  8/ 13 1017.1
13E OREGON INLT  NOT AVBL
HATTERAS CG      1200   50 63  320/ 21/ 25 1016.9
DIAMOND BUOY     1150   54 72  330/ 19/ 25 1016.1    7/10   3/10
CAPE LOOKOUT     1200   49     330/ 19/ 21 1017.7
BEAUFORT LAB     1200   49 63  340/ 10/ 15 1017.4
30 SE NEW RVR IN 1208   53     360/ 17/ 21 1018.2
30 SE NEW RVR IN 1143      65                N/A     6/ 5   2/11
27 SE WRIGHTSVLE 1208   53 62  340/ 17/ 25 1017.6
5 SE WRIGHTSVLE  1208   50 58  340/ 16/ 25 1019.0
225 S CAPE HAT   1150   71 71  320/ 17/ 19 1015.4    8/ 9   5/ 9
41 SE CHARLESTON 1150   58 69  340/ 16/ 19 1018.5    5/ 5   2/10

$$




USA.gov is the U.S. government's official web portal to all federal, state and local government web resources and services.